Flag for Israel Weather past 2 weeks in Hadera, Israel

Now
68 °F

Sunny.


Feels Like: 68 °F
Forecast: 57 / 67 °F
Wind: 13 mph from West

Location: Dov Airport

Current Time: Mar 31, 2015 at 3:16:57 PM

Latest Report: Mar 31, 2015 at 2:50 PM


Visibility: 10 mi

Pressure: 29.92 "Hg

Humidity: 64%

Dew point: 55 °F

Location of HaderaLocation

Historic Weather in Hadera — Graph

°F

Hadera temperature yesterday

Maximum temperature yesterday: 68 °F (at 11:50 AM)
Minimum temperature yesterday: 59 °F (at 6:50 AM)
Average temperature yesterday: 65 °F

Past Weeks' High & Low Weather Summary

 TemperatureHumidityPressure
High91 °F (Mar 27, 3:50 PM)94% (Mar 21, 4:01 PM)30.15 "Hg (Mar 21, 4:01 PM)
Low52 °F (Mar 18, 5:50 AM)16% (Mar 27, 3:50 PM)29.62 "Hg (Mar 28, 5:50 AM)
Average64 °F62%29.96 "Hg
* Reported Mar 16 12:50 PM — Mar 31 1:50 PM, Hadera, Weather by CustomWeather, © 2015

Note: Actual official high and low records may vary slightly from our data, if they occured in-between our weather recording intervals... More about our weather records

Advertising

Hadera weather history for previous 24 hours

 ConditionsComfort  
Time TempWeatherWind HumidityBarometerVisibility
1:50 PM
Tue, Mar 31
68 °FPassing clouds.14 mph64%29.95 "HgN/A
12:50 PM68 °FPassing clouds.13 mph64%29.95 "HgN/A
11:50 AM68 °FPassing clouds.15 mph64%29.98 "HgN/A
10:50 AM66 °FPassing clouds.13 mph68%30.01 "HgN/A
9:50 AM66 °FScattered clouds.9 mph64%29.98 "HgN/A
8:50 AM63 °FPassing clouds.7 mph73%29.98 "HgN/A
7:50 AM61 °FPassing clouds.7 mph77%29.98 "HgN/A
6:50 AM59 °FPassing clouds.6 mph82%29.98 "HgN/A
5:50 AM59 °FClear.6 mph82%29.98 "Hg10 mi
10:50 PM
Mon, Mar 30
63 °FPassing clouds.6 mph73%29.98 "HgN/A
9:50 PM63 °FClear.6 mph73%29.98 "Hg10 mi
8:50 PM63 °FPassing clouds.8 mph73%29.98 "HgN/A
7:50 PM63 °FScattered clouds.9 mph73%29.98 "HgN/A
6:50 PM64 °FScattered clouds.13 mph68%29.95 "HgN/A
5:50 PM66 °FScattered clouds.14 mph68%29.95 "HgN/A
4:50 PM66 °FScattered clouds.15 mph68%29.95 "HgN/A
3:50 PM68 °FScattered clouds.14 mph64%29.95 "HgN/A
Weather by CustomWeather, © 2015

See weather overviewHow to use our weather pages